Date String (YYYY-MM-DD hh:mm:ss) UTC,Instrument flags,absolute air pressure of the measurement (hPa),sample flow rate (lpm),inlet stack bypass flow (lpm),air temperature of the measurement (°C),ambient temperature measured by the external sensor (°C),aerosol sample conditioner tube jacket temperature (°C),OPC LED temperature (°C),internal box temperature (°C),relative humidity of the measurement (%),span deviation,mass concentration of particles derived from Lorenz-Mie calculation of OPC scattering (μg/m³),mass concentration of particles derived from Lorenz-Mie calculation of OPC scattering (μg/m³),mass concentration of particles derived from Lorenz-Mie calculation of OPC scattering (μg/m³)
DateTimeUTC,F1_M11,P_M11,Q1_M11,Q2_M11,T1_M11,T2_M11,T3_M11,T4_M11,T5_M11,U1_M11,ZSPAN_M11,X0_M11,X2_M11,X1_M11
2023-07-05 11:00:00,SystemResetWarning,0836.4,5.00,000.00,029.8,028.5,000.0,038.4,031.4,31.2,-003.1,0009.76,0005.38,0004.95
2023-07-05 11:01:00,SystemResetWarning,0836.4,5.00,000.00,029.8,028.5,000.0,038.4,031.4,31.2,-002.6,0009.89,0005.37,0004.94
2023-07-05 11:02:00,SystemResetWarning,0836.4,5.00,000.00,029.8,028.5,000.0,038.4,031.4,31.2,-002.2,0009.90,0005.33,0004.93
2023-07-05 11:03:00,SystemResetWarning,0836.4,5.00,000.00,029.8,028.5,000.0,038.4,031.4,31.3,-002.2,0009.84,0005.32,0004.93
2023-07-05 11:04:00,SystemResetWarning,0836.4,5.00,000.00,029.9,028.5,000.0,038.4,031.4,31.4,-002.0,0009.49,0005.31,0004.93
2023-07-05 11:05:00,SystemResetWarning,0836.4,4.99,000.00,029.9,028.5,000.0,038.4,031.4,31.4,-002.5,0009.24,0005.30,0004.91
2023-07-05 11:06:00,SystemResetWarning,0836.4,4.99,000.00,029.9,028.5,000.0,038.5,031.4,31.5,-002.5,0008.67,0005.29,0004.91
2023-07-05 11:07:00,SystemResetWarning,0836.4,5.00,000.00,029.9,028.5,000.0,038.5,031.4,31.4,-002.4,0008.70,0005.29,0004.93
2023-07-05 11:08:00,SystemResetWarning,0836.5,5.01,000.00,029.9,028.5,000.0,038.5,031.4,31.4,-002.9,0008.71,0005.29,0004.95
2023-07-05 11:09:00,SystemResetWarning,0836.5,5.01,000.00,029.9,028.5,000.0,038.5,031.4,31.3,-003.0,0009.17,0005.32,0004.96
2023-07-05 11:10:00,SystemResetWarning,0836.5,4.99,000.00,029.9,028.5,000.0,038.5,031.4,31.3,-003.1,0009.45,0005.35,0004.98
2023-07-05 11:11:00,SystemResetWarning,0836.5,4.99,000.00,029.9,028.5,000.0,038.5,031.4,31.3,-002.3,0009.57,0005.39,0005.02
2023-07-05 11:12:00,SystemResetWarning,0836.5,4.99,000.00,029.9,028.5,000.0,038.5,031.4,31.2,-002.3,0009.37,0005.43,0005.06
2023-07-05 11:13:00,SystemResetWarning,0836.5,5.00,000.00,029.9,028.5,000.0,038.5,031.4,31.2,-002.6,0009.34,0005.49,0005.11
2023-07-05 11:14:00,SystemResetWarning,0836.5,5.00,000.00,029.9,028.5,000.0,038.5,031.5,31.2,-002.5,0009.47,0005.54,0005.14
2023-07-05 11:15:00,SystemResetWarning,0836.6,5.00,000.00,029.9,028.6,000.0,038.5,031.4,31.2,-002.9,0009.52,0005.59,0005.18
2023-07-05 11:16:00,SystemResetWarning,0836.6,5.01,000.00,029.9,028.6,000.0,038.5,031.4,31.3,-002.7,0009.56,0005.60,0005.21
2023-07-05 11:17:00,SystemResetWarning,0836.6,5.00,000.00,029.9,028.6,000.0,038.5,031.5,31.2,-002.6,0009.78,0005.63,0005.25
2023-07-05 11:18:00,SystemResetWarning,0836.6,5.00,000.00,029.9,028.6,000.0,038.5,031.5,31.2,-002.8,0009.94,0005.68,0005.29
2023-07-05 11:19:00,SystemResetWarning,0836.6,5.00,000.00,029.9,028.6,000.0,038.5,031.5,31.1,-002.7,0009.88,0005.73,0005.33
2023-07-05 11:20:00,SystemResetWarning,0836.6,5.00,000.00,029.9,028.6,000.0,038.5,031.5,31.0,-002.3,0009.56,0005.77,0005.37
2023-07-05 11:21:00,SystemResetWarning,0836.6,5.00,000.00,030.0,028.6,000.0,038.5,031.5,31.0,-002.3,0009.44,0005.80,0005.41
2023-07-05 11:22:00,SystemResetWarning,0836.5,5.00,000.00,030.0,028.6,000.0,038.5,031.5,30.9,-002.3,0009.60,0005.81,0005.44
2023-07-05 11:23:00,SystemResetWarning,0836.5,5.00,000.00,030.0,028.6,000.0,038.5,031.5,30.9,-002.4,0009.79,0005.85,0005.46
2023-07-05 11:24:00,SystemResetWarning,0836.5,5.00,000.00,030.0,028.6,000.0,038.5,031.5,30.9,-002.0,0009.77,0005.86,0005.49
2023-07-05 11:25:00,SystemResetWarning,0836.5,5.00,000.00,030.0,028.6,000.0,038.5,031.5,30.9,-001.8,0009.71,0005.86,0005.52
2023-07-05 11:26:00,SystemResetWarning,0836.5,5.00,000.00,030.0,028.6,000.0,038.5,031.5,30.8,-001.8,0009.79,0005.89,0005.55
2023-07-05 11:27:00,SystemResetWarning,0836.5,5.00,000.00,030.0,028.6,000.0,038.6,031.5,30.8,-002.0,0009.85,0005.94,0005.58
2023-07-05 11:28:00,SystemResetWarning,0836.5,5.00,000.00,030.0,028.6,000.0,038.6,031.5,30.8,-002.2,0009.80,0005.98,0005.61
2023-07-05 11:29:00,SystemResetWarning,0836.5,5.00,000.00,030.0,028.6,000.0,038.6,031.5,30.7,-002.0,0009.72,0006.03,0005.64
2023-07-05 11:30:00,SystemResetWarning,0836.5,5.00,000.00,030.0,028.6,000.0,038.6,031.5,30.7,-002.1,0009.74,0006.04,0005.66
2023-07-05 11:31:00,SystemResetWarning,0836.5,5.00,000.00,030.0,028.6,000.0,038.6,031.5,30.7,-002.2,0009.73,0006.08,0005.71
2023-07-05 11:32:00,SystemResetWarning,0836.5,5.00,000.00,030.0,028.6,000.0,038.6,031.5,30.6,-002.3,0009.74,0006.14,0005.76
2023-07-05 11:33:00,SystemResetWarning,0836.5,5.00,000.00,030.0,028.7,000.0,038.6,031.5,30.6,-002.6,0009.54,0006.20,0005.79
2023-07-05 11:34:00,SystemResetWarning,0836.5,5.00,000.00,030.0,028.7,000.0,038.6,031.5,30.6,-003.0,0009.55,0006.26,0005.82
2023-07-05 11:35:00,SystemResetWarning,0836.5,5.00,000.00,030.0,028.7,000.0,038.6,031.5,30.6,-003.3,0009.56,0006.28,0005.85
2023-07-05 11:36:00,SystemResetWarning,0836.4,5.00,000.00,030.0,028.7,000.0,038.6,031.5,30.6,-003.4,0009.78,0006.33,0005.89
2023-07-05 11:37:00,SystemResetWarning,0836.3,5.00,000.00,030.0,028.7,000.0,038.6,031.6,30.5,-003.4,0010.99,0006.38,0005.93
2023-07-05 11:38:00,SystemResetWarning,0836.3,5.00,000.00,030.0,028.7,000.0,038.6,031.5,30.5,-003.1,0011.06,0006.41,0005.97
2023-07-05 11:39:00,SystemResetWarning,0836.2,5.01,000.00,030.1,028.7,000.0,038.6,031.6,30.5,-003.2,0011.14,0006.48,0006.02
2023-07-05 11:40:00,SystemResetWarning,0836.2,5.00,000.00,030.1,028.7,000.0,038.6,031.6,30.5,-003.2,0010.94,0006.54,0006.06
2023-07-05 11:41:00,SystemResetWarning,0836.2,5.00,000.00,030.1,028.7,000.0,038.6,031.5,30.5,-003.4,0010.99,0006.59,0006.10
2023-07-05 11:42:00,SystemResetWarning,0836.2,5.00,000.00,030.1,028.7,000.0,038.6,031.5,30.4,-003.7,0010.93,0006.58,0006.12
2023-07-05 11:43:00,SystemResetWarning,0836.2,5.00,000.00,030.1,028.7,000.0,038.6,031.6,30.4,-003.5,0010.97,0006.61,0006.15
2023-07-05 11:44:00,SystemResetWarning,0836.2,5.01,000.00,030.1,028.7,000.0,038.6,031.6,30.5,-003.4,0010.89,0006.60,0006.17
2023-07-05 11:45:00,SystemResetWarning,0836.1,5.00,000.00,030.1,028.8,000.0,038.6,031.6,30.4,-002.9,0010.77,0006.59,0006.18
2023-07-05 11:46:00,SystemResetWarning,0836.1,5.00,000.00,030.1,028.8,000.0,038.6,031.6,30.4,-002.6,0010.83,0006.63,0006.20
2023-07-05 11:47:00,SystemResetWarning,0835.9,4.99,000.00,030.1,028.8,000.0,038.7,031.6,30.6,-002.7,0010.94,0006.65,0006.22
2023-07-05 11:48:00,SystemResetWarning,0835.8,5.00,000.00,030.1,028.8,000.0,038.7,031.6,30.5,-002.7,0009.87,0006.65,0006.24
2023-07-05 11:49:00,SystemResetWarning,0835.7,5.00,000.00,030.1,028.7,000.0,038.7,031.6,30.6,-002.9,0009.55,0006.67,0006.25
2023-07-05 11:50:00,SystemResetWarning,0835.6,5.00,000.00,030.1,028.7,000.0,038.7,031.6,30.6,-003.3,0009.89,0006.68,0006.25
2023-07-05 11:51:00,SystemResetWarning,0835.6,5.00,000.00,030.1,028.7,000.0,038.7,031.6,30.6,-003.5,0009.83,0006.65,0006.25
2023-07-05 11:52:00,SystemResetWarning,0835.7,5.00,000.00,030.1,028.6,000.0,038.7,031.6,30.6,-003.1,0010.17,0006.63,0006.22
2023-07-05 11:53:00,SystemResetWarning,0835.9,5.00,000.00,030.1,028.6,000.0,038.7,031.6,30.7,-002.8,0010.12,0006.60,0006.19
2023-07-05 11:54:00,SystemResetWarning,0836.0,4.99,000.00,030.1,028.6,000.0,038.7,031.6,30.7,-002.6,0010.05,0006.56,0006.17
2023-07-05 11:55:00,SystemResetWarning,0836.1,5.00,000.00,030.1,028.6,000.0,038.7,031.6,30.7,-002.5,0009.92,0006.50,0006.14
2023-07-05 11:56:00,SystemResetWarning,0836.1,5.00,000.00,030.1,028.6,000.0,038.7,031.6,30.8,-002.6,0009.95,0006.48,0006.13
2023-07-05 11:57:00,SystemResetWarning,0836.1,5.00,000.00,030.1,028.6,000.0,038.7,031.6,30.9,-002.7,0009.91,0006.45,0006.10
2023-07-05 11:58:00,SystemResetWarning,0836.1,5.00,000.00,030.1,028.7,000.0,038.7,031.6,30.9,-002.3,0009.84,0006.41,0006.07
2023-07-05 11:59:00,SystemResetWarning,0836.1,5.00,000.00,030.1,028.7,000.0,038.7,031.6,30.9,-002.1,0010.20,0006.40,0006.03
